Location: Belvedere Heights
(33.9836°N, 117.3109°W)
Time: 09:33:21
(UTC+00:00)

USA 281 - Pass Details

Date: 21 March 2023
Orbit: 1077 x 1081 km, 106.0° (Epoch: 20 May)

Event Time Altitude Azimuth Distance (km) Brightness Sun altitude
Rises 13:17:03 0° 175° (S) 3,863 6.1 -8.0°
Reaches altitude 10° 13:19:41 10° 181° (S) 2,910 5.4 -7.5°
Maximum altitude 13:25:53 45° 253° (WSW) 1,436 3.5 -6.2°
Drops below altitude 10° 13:32:07 10° 324° (NW) 2,922 5.2 -4.9°
Sets 13:34:47 0° 331° (NNW) 3,880 5.9 -4.3°
